Petersburg, WV

7:03 AM EST on December 07, 2019 (GMT -0500)
Petersburg

Weather History for KW99 - November, 2019

Change the Weather History Date:

Thursday, November 14, 2019

  Actual Average (KEKN) Record (KEKN)
Temperature  
Mean Temperature 32 °F -  
Max Temperature 50 °F 52 °F 79 °F (1993)
Min Temperature 13 °F 27 °F 5 °F (1986)
Degree Days  
Heating Degree Days 34    
Moisture  
Dew Point 18 °F    
Average Humidity 69    
Maximum Humidity 93    
Minimum Humidity 29    
Precipitation  
Precipitation 0.00 in - - ()
Sea Level Pressure  
Sea Level Pressure 30.28 in    
Wind  
Wind Speed 1 mph (NNW)    
Max Wind Speed 8 mph    
Max Gust Speed -    
Visibility 10 miles    
Events      
Averages and records for this station are not official NWS values.
T = Trace of Precipitation, MM = Missing Value Source: NWS Daily Summary

Daily Weather History Graph

Daily Weather History Graph

Search for Another Location

Airport or City:

Astronomy

Nov. 14, 2019 Rise Set
Actual Time 6:58 AM EST 5:03 PM EST
Civil Twilight 6:29 AM EST 5:31 PM EST
Nautical Twilight 5:57 AM EST 6:04 PM EST
Astronomical Twilight 5:25 AM EST 6:35 PM EST
Moon 6:48 PM EST (11/14) 8:51 AM EST (11/14)
Length of Visible Light 11h 02m
Length of Day
10h 05m
Waning Gibbous, 95% of the Moon is Illuminated
Nov 14
Waning Gibbous
Nov 19
Last Quarter
Nov 26
New
Dec 4
First Quarter
Dec 12
Full

Hourly Weather History & Observations

Time (EST) Temp. Windchill Dew Point Humidity Pressure Visibility Wind Dir Wind Speed Gust Speed Precip Events Conditions
12:15 AM 18.0 °F - 14.7 °F 87% 30.30 in 10.0 mi Calm Calm - N/A   Clear
12:35 AM 16.9 °F - 13.8 °F 88% 30.30 in 10.0 mi Calm Calm - N/A   Clear
1:10 AM 16.5 °F - 13.3 °F 87% 30.30 in 10.0 mi Calm Calm - N/A   Clear
1:35 AM 16.0 °F - 13.1 °F 88% 30.29 in 10.0 mi Calm Calm - N/A   Clear
1:55 AM 16.2 °F - 12.9 °F 87% 30.29 in 10.0 mi Calm Calm - N/A   Clear
2:15 AM 15.6 °F - 12.4 °F 87% 30.29 in 10.0 mi Calm Calm - N/A   Clear
2:35 AM 16.9 °F - 14.0 °F 88% 30.30 in 10.0 mi Calm Calm - N/A   Clear
2:55 AM 16.2 °F - 12.7 °F 86% 30.30 in 10.0 mi Calm Calm - N/A   Clear
3:15 AM 16.3 °F - 13.6 °F 89% 30.30 in 10.0 mi Calm Calm - N/A   Clear
3:35 AM 16.0 °F - 13.3 °F 89% 30.30 in 10.0 mi Calm Calm - N/A   Clear
3:55 AM 16.3 °F - 13.6 °F 89% 30.29 in 10.0 mi Calm Calm - N/A   Clear
4:15 AM 15.3 °F - 12.9 °F 90% 30.29 in 10.0 mi Calm Calm - N/A   Clear
4:35 AM 14.2 °F - 11.8 °F 90% 30.29 in 10.0 mi Calm Calm - N/A   Clear
4:55 AM 14.7 °F - 12.6 °F 91% 30.29 in 10.0 mi Calm Calm - N/A   Clear
5:15 AM 14.2 °F - 12.2 °F 92% 30.30 in 10.0 mi Calm Calm - N/A   Clear
5:35 AM 14.9 °F - 12.7 °F 91% 30.30 in 10.0 mi Calm Calm - N/A   Clear
5:55 AM 13.6 °F 7.7 °F 11.5 °F 91% 30.31 in 10.0 mi WNW 3.5 mph - N/A   Clear
6:15 AM 14.5 °F - 12.7 °F 93% 30.31 in 10.0 mi Calm Calm - N/A   Clear
6:35 AM 14.7 °F - 12.2 °F 90% 30.32 in 10.0 mi Calm Calm - N/A   Clear
6:55 AM 14.7 °F - 12.0 °F 89% 30.32 in 10.0 mi Calm Calm - N/A   Clear
7:15 AM 14.9 °F - 12.7 °F 91% 30.32 in 10.0 mi Calm Calm - N/A   Clear
7:35 AM 16.2 °F - 13.8 °F 90% 30.33 in 10.0 mi Calm Calm - N/A   Clear
7:55 AM 17.4 °F - 14.4 °F 88% 30.34 in 10.0 mi Calm Calm - N/A   Clear
8:15 AM 18.7 °F - 15.6 °F 88% 30.33 in 10.0 mi Calm Calm - N/A   Clear
8:35 AM 20.7 °F - 16.9 °F 85% 30.34 in 10.0 mi Calm Calm - N/A   Clear
8:55 AM 22.8 °F - 18.0 °F 82% 30.33 in 10.0 mi Calm Calm - N/A   Clear
9:15 AM 23.7 °F - 18.7 °F 81% 30.33 in 10.0 mi Calm Calm - N/A   Clear
9:35 AM 25.3 °F - 18.7 °F 76% 30.32 in 10.0 mi Calm Calm - N/A   Clear
10:15 AM 29.1 °F - 19.6 °F 68% 30.31 in 10.0 mi Calm Calm - N/A   Clear
10:35 AM 32.0 °F - 19.6 °F 60% 30.30 in 10.0 mi Calm Calm - N/A   Clear
10:55 AM 33.6 °F - 17.8 °F 52% 30.30 in 10.0 mi Calm Calm - N/A   Clear
11:15 AM 38.5 °F - 19.6 °F 47% 30.29 in 10.0 mi Calm Calm - N/A   Clear
11:35 AM 41.4 °F - 20.5 °F 43% 30.27 in 10.0 mi Calm Calm - N/A   Clear
11:55 AM 43.2 °F - 20.1 °F 40% 30.26 in 10.0 mi Calm Calm - N/A   Clear
12:15 PM 45.3 °F - 18.0 °F 34% 30.24 in 10.0 mi Calm Calm - N/A   Clear
12:35 PM 46.0 °F - 16.5 °F 31% 30.23 in 10.0 mi Calm Calm - N/A   Clear
12:55 PM 46.6 °F - 17.6 °F 32% 30.23 in 10.0 mi North 3.5 mph - N/A   Clear
1:15 PM 47.1 °F - 16.3 °F 29% 30.22 in 10.0 mi NNW 4.6 mph - N/A   Clear
1:35 PM 48.4 °F - 17.2 °F 29% 30.21 in 10.0 mi NNE 5.8 mph - N/A   Clear
1:55 PM 46.6 °F - 19.4 °F 34% 30.21 in 10.0 mi NNE 8.1 mph - N/A   Clear
2:15 PM 48.0 °F - 18.7 °F 31% 30.21 in 10.0 mi NNE 5.8 mph - N/A   Clear
2:35 PM 49.3 °F - 18.9 °F 30% 30.21 in 10.0 mi NE 4.6 mph - N/A   Clear
2:55 PM 50.0 °F - 19.4 °F 30% 30.21 in 10.0 mi NNE 4.6 mph - N/A   Clear
3:15 PM 49.1 °F - 17.6 °F 29% 30.21 in 10.0 mi Calm Calm - N/A   Scattered Clouds
3:35 PM 49.8 °F - 18.7 °F 29% 30.22 in 10.0 mi NNW 3.5 mph - N/A   Scattered Clouds
3:55 PM 48.9 °F - 17.8 °F 29% 30.22 in 10.0 mi North 3.5 mph - N/A   Clear
4:15 PM 47.5 °F - 19.2 °F 33% 30.22 in 10.0 mi Calm Calm - N/A   Clear
4:35 PM 44.6 °F - 19.6 °F 37% 30.23 in 10.0 mi Calm Calm - N/A   Clear
4:55 PM 42.8 °F - 20.1 °F 40% 30.23 in 10.0 mi Calm Calm - N/A   Clear
5:15 PM 39.9 °F - 20.7 °F 46% 30.24 in 10.0 mi Calm Calm - N/A   Clear
5:35 PM 34.7 °F 30.6 °F 22.3 °F 61% 30.25 in 10.0 mi West 4.6 mph - N/A   Clear
5:55 PM 32.7 °F 29.6 °F 22.6 °F 66% 30.26 in 10.0 mi WNW 3.5 mph - N/A   Clear
6:15 PM 32.2 °F 27.7 °F 22.3 °F 67% 30.26 in 10.0 mi West 4.6 mph - N/A   Clear
6:35 PM 30.9 °F 27.5 °F 23.0 °F 72% 30.26 in 10.0 mi West 3.5 mph - N/A   Clear
7:15 PM 28.9 °F - 22.1 °F 76% 30.27 in 10.0 mi Calm Calm - N/A   Clear
7:35 PM 28.2 °F - 22.8 °F 80% 30.27 in 10.0 mi Calm Calm - N/A   Clear
7:55 PM 29.1 °F - 23.4 °F 79% 30.27 in 10.0 mi Calm Calm - N/A   Clear
8:15 PM 29.1 °F - 22.1 °F 75% 30.28 in 10.0 mi Calm Calm - N/A   Clear
8:35 PM 26.8 °F - 21.2 °F 79% 30.29 in 10.0 mi Calm Calm - N/A   Clear
8:55 PM 28.2 °F - 23.9 °F 84% 30.29 in 10.0 mi Calm Calm - N/A   Clear
9:15 PM 27.1 °F - 21.7 °F 80% 30.29 in 10.0 mi Calm Calm - N/A   Clear
9:35 PM 25.7 °F - 21.4 °F 84% 30.29 in 10.0 mi Calm Calm - N/A   Clear
9:55 PM 25.2 °F - 21.6 °F 86% 30.30 in 10.0 mi Calm Calm - N/A   Clear
10:15 PM 24.1 °F - 20.5 °F 86% 30.30 in 10.0 mi Calm Calm - N/A   Clear
10:35 PM 25.3 °F - 22.5 °F 89% 30.30 in 10.0 mi Calm Calm - N/A   Clear
10:55 PM 23.7 °F - 20.5 °F 87% 30.30 in 10.0 mi Calm Calm - N/A   Clear
11:35 PM 23.7 °F - 21.0 °F 89% 30.30 in 10.0 mi Calm Calm - N/A   Clear
11:55 PM 24.3 °F - 21.2 °F 88% 30.30 in 10.0 mi Calm Calm - N/A   Clear